Regional Weather Roundup
Issued by NWS

Home | Current Version | Previous Version | Graphics & Text | Print | Product List | Glossary On
Versions: 1 2 3 4 5 6 7 8 9 10 11 12 13 14 15 16 17 18 19 20 21 22 23 24 25 26 27 28 29 30 31 32 33 34 35 36 37 38 39 40 41 42 43 44 45 46 47 48 49 50
000
ASUS43 KDMX 072106
RWRIA

WEATHER ROUNDUP FOR IOWA
NATIONAL WEATHER SERVICE DES MOINES IA
300 PM CST WED DEC 07 2016

NOTE: "FAIR" INDICATES FEW OR NO CLOUDS BELOW 12,000 FEET WITH NO
SIGNIFICANT WEATHER AND/OR OBSTRUCTIONS TO VISIBILITY.

* - THESE STATIONS ARE NOT NWS STATIONS...THUS NOT UNDER NWS
QUALITY CONTROL.  THEY ALSO DO NOT REPORT WEATHER SUCH
AS PRECIPITATION OR FOG.

IAZ001>003-012>014-020>022-031>034-043>046-072200-
   NORTHWEST IOWA

CITY           SKY/WX    TMP DP  RH WIND       PRES   REMARKS
CARROLL *      PTSUNNY   23  10  58 W23       30.25R WCI   7
CHEROKEE *     SUNNY     22   9  56 W21G26    30.24R WCI   7
DENISON *      MOSUNNY   21   9  58 NW17G23   30.25R WCI   7
LE MARS *      MOSUNNY   21   7  53 NW20G30   30.28R WCI   6
ORANGE CITY *  SUNNY     21  10  63 NW30G36   30.22R WCI   3
SHELDON *      SUNNY     21   9  58 W28G33    30.19R WCI   3
SIOUX CITY     SUNNY     24   7  48 NW21G29   30.29R WCI   9
SPENCER        SUNNY     21   8  57 W30G44    30.18R WCI   3
STORM LAKE *   SUNNY     21  10  63 NW23G30   30.20S WCI   5
$$

IAZ055>058-069>071-079>083-090>094-072200-
   SOUTHWEST IOWA

CITY           SKY/WX    TMP DP  RH WIND       PRES   REMARKS
ATLANTIC *     CLOUDY    23  10  58 W16G24    30.28S WCI  10
AUDUBON *      MOSUNNY   23  10  58 NW15G22   30.25R WCI  10
CLARINDA *     MOSUNNY   23  10  58 NW16      30.34R WCI  10
COUNCIL BLFS * MOSUNNY   25   9  50 NW16      30.30R WCI  12
CRESTON *      CLOUDY    23   9  54 NW22G28   30.27S WCI   8
HARLAN  *      PTSUNNY   23  10  58 NW20      30.31S WCI   8
LAMONI         CLOUDY    25  11  55 W20G26    30.26R WCI  11
RED OAK *      PTSUNNY   25  10  54 NW13G21   30.31S WCI  13
SHENANDOAH *   CLOUDY    25  10  54 NW13G20   30.34R WCI  13
$$

IAZ047>049-059>061-072>074-084-072200-
   CENTRAL IOWA

CITY           SKY/WX    TMP DP  RH WIND       PRES   REMARKS
AMES           MOSUNNY   24  12  60 W18G32    30.22R WCI  10
ANKENY *       CLOUDY    23  10  58 W18G25    30.25S WCI   9
BOONE *        CLOUDY    23  10  58 W21G30    30.20R WCI   8
CHARITON *     CLOUDY    25  10  54 W12G22    30.24R WCI  14
DES MOINES     CLOUDY    25   9  50 W21G26    30.25R WCI  11
GRINNELL*      CLOUDY    23  13  66 W23       30.21R WCI   8
KNOXVILLE *    MOSUNNY   25   9  50 NW20      30.22S WCI  11
MARSHALLTOWN   MOSUNNY   24  14  65 W17G28    30.19R WCI  11
NEWTON *       CLOUDY    23  12  63 W15G23    30.21S WCI  10
PELLA *        MOSUNNY   26  12  55 W17G23    30.24S WCI  12
PERRY *          N/A     24  14  65 W24       30.24S WCI   8
$$

IAZ004>006-015-016-023>025-035-036-072200-
   NORTH CENTRAL IOWA

CITY           SKY/WX    TMP DP  RH WIND       PRES   REMARKS
ALGONA *       CLOUDY    25  12  58 W20G28    30.16R WCI  11
CLARION *      CLOUDY    23  14  68 W21G29    30.17R WCI   8
ESTHERVILLE    PTSUNNY   22  11  62 W28G36    30.15R WCI   4
FORT DODGE *   MOSUNNY   23  10  58 W15G22    30.21R WCI  10
MASON CITY     CLOUDY    22  11  62 W23G33    30.14R WCI   6
FOREST CITY *  CLOUDY    23  12  63 W24G31    30.13R WCI   7
WEBSTER CITY * MOSUNNY   23  12  63 W23G32    30.18R WCI   7
IOWA FALLS *   PTSUNNY   24  15  69 W24       30.18R WCI   8
$$

IAZ007>011-017>019-026>030-037>042-050>054-066-072200-
   NORTHEAST IOWA

CITY           SKY/WX    TMP DP  RH WIND       PRES   REMARKS
CEDAR RAPIDS   MOSUNNY   23  16  74 W15       30.17R WCI  10
CHARLES CITY * CLOUDY    21  12  68 W20G25    30.12R WCI   6
DECORAH *      CLOUDY    19  12  73 VRB7G20   30.08R WCI  10
DUBUQUE        SUNNY     19  12  74 W16       30.11R WCI   4
MONTICELLO *   CLOUDY    21  14  73 W10G22    30.15R WCI  10
OELWEIN *      CLOUDY    21  16  79 W15       30.13R WCI   8
WATERLOO       CLOUDY    23  13  65 W17       30.16R WCI   9
$$

IAZ064-065-067-068-078-072200-
   EAST CENTRAL IOWA

CITY           SKY/WX    TMP DP  RH WIND       PRES   REMARKS
DAVENPORT      CLOUDY    26  17  68 W22       30.17R WCI  12
IOWA CITY      PTSUNNY   26  14  60 W17G28    30.21R WCI  13
MUSCATINE *    CLOUDY    28  16  59 W14       30.21S WCI  17
QUAD CITIES    MOSUNNY   28  16  60 W15       30.18R WCI  16
$$

IAZ062-063-075>077-085>089-095>099-072200-
   SOUTHEAST IOWA

CITY           SKY/WX    TMP DP  RH WIND       PRES   REMARKS
BURLINGTON     CLOUDY    29  16  58 NW12      30.20R WCI  19
FAIRFIELD *    MOSUNNY   27  12  54 W15G23    30.21S WCI  15
FORT MADISON * CLOUDY    28  16  59 W13       30.22R WCI  18
KEOKUK *       CLOUDY    30  16  55 W14       30.21S WCI  20
OSKALOOSA *      N/A     26  14  60 NW17G24   30.23R WCI  13
CENTERVILLE *    N/A     27  14  59 W18       30.25R WCI  13
OTTUMWA        MOSUNNY   27  11  51 W16       30.23R WCI  15
WASHINGTON *   CLOUDY    27  16  63 W16       30.22R WCI  14
$$

ABBREVIATIONS USED IN REMARKS
   TC - TEMPERATURES IN CELSIUS
  WCI - WIND CHILL INDEX
   HX - HEAT INDEX
  VSB - VISIBILITY
$$





USA.gov is the U.S. government's official web portal to all federal, state and local government web resources and services.